TimeEDT,TemperatureF,Dew PointF,Humidity,Sea Level PressureIn,VisibilityMPH,Wind Direction,Wind SpeedMPH,Gust SpeedMPH,PrecipitationIn,Events,Conditions,WindDirDegrees,DateUTC
12:53 AM,50.0,44.1,80,30.11,10.0,NNW,4.6,-,N/A,,Clear,330,2012-09-24 04:53:00
1:53 AM,51.1,44.1,77,30.11,10.0,NNW,4.6,-,N/A,,Overcast,340,2012-09-24 05:53:00
2:53 AM,50.0,44.1,80,30.10,10.0,NNW,4.6,-,N/A,,Mostly Cloudy,340,2012-09-24 06:53:00
3:53 AM,50.0,45.0,83,30.11,10.0,NNW,4.6,-,N/A,,Overcast,330,2012-09-24 07:53:00
4:53 AM,48.9,44.1,83,30.12,10.0,Calm,Calm,-,N/A,,Mostly Cloudy,0,2012-09-24 08:53:00
5:53 AM,48.0,44.1,86,30.12,10.0,Calm,Calm,-,N/A,,Mostly Cloudy,0,2012-09-24 09:53:00
6:53 AM,46.9,44.1,90,30.13,10.0,Calm,Calm,-,N/A,,Overcast,0,2012-09-24 10:53:00
7:53 AM,50.0,45.0,83,30.16,10.0,WNW,3.5,-,N/A,,Overcast,290,2012-09-24 11:53:00
8:53 AM,54.0,45.0,72,30.17,10.0,NW,8.1,-,N/A,,Clear,320,2012-09-24 12:53:00
9:53 AM,57.9,45.0,62,30.17,10.0,NNW,5.8,-,N/A,,Clear,340,2012-09-24 13:53:00
10:53 AM,61.0,45.0,56,30.17,10.0,NW,11.5,-,N/A,,Clear,310,2012-09-24 14:53:00
11:53 AM,62.1,41.0,46,30.16,10.0,NW,9.2,-,N/A,,Clear,320,2012-09-24 15:53:00
12:53 PM,64.0,39.0,40,30.14,10.0,WNW,9.2,-,N/A,,Clear,290,2012-09-24 16:53:00
1:53 PM,64.9,37.9,37,30.13,10.0,NNW,8.1,19.6,N/A,,Clear,340,2012-09-24 17:53:00
2:53 PM,66.0,37.9,36,30.12,10.0,NNW,10.4,-,N/A,,Scattered Clouds,340,2012-09-24 18:53:00
3:53 PM,64.9,36.0,34,30.10,10.0,West,10.4,18.4,N/A,,Partly Cloudy,280,2012-09-24 19:53:00
4:53 PM,64.9,37.9,37,30.10,10.0,West,8.1,-,N/A,,Clear,280,2012-09-24 20:53:00
5:53 PM,64.0,36.0,35,30.10,10.0,WNW,6.9,-,N/A,,Clear,290,2012-09-24 21:53:00
6:53 PM,60.1,37.9,44,30.11,10.0,West,3.5,-,N/A,,Clear,270,2012-09-24 22:53:00
7:53 PM,57.0,39.0,51,30.12,10.0,Calm,Calm,-,N/A,,Clear,0,2012-09-24 23:53:00
8:53 PM,55.0,41.0,59,30.12,10.0,Calm,Calm,-,N/A,,Clear,0,2012-09-25 00:53:00
9:53 PM,51.1,42.1,71,30.14,10.0,Calm,Calm,-,N/A,,Clear,0,2012-09-25 01:53:00
10:53 PM,51.1,42.1,71,30.14,10.0,Calm,Calm,-,N/A,,Clear,0,2012-09-25 02:53:00
11:53 PM,48.9,44.1,83,30.14,10.0,West,3.5,-,N/A,,Clear,260,2012-09-25 03:53:00